Overview Statistics Trail Chart Weather Telemetry Raw packets
 

This is the latest recevied weather packets stored in our database for station/object N0KTA-2. If no packets are shown the sender has not sent any weather packets the latest 10 day(s).

<< 47 48 49 50 51 52 53 >>
Time Temp. Humidity Pressure Rain* Wind** Luminosity Snow
1787944104 33.33° C 41% 1013.7 hPa 0 mm - - -
1787943503 33.33° C 41% 1013.7 hPa 0 mm - - -
1787942902 32.78° C 42% 1013.8 hPa 0 mm - - -
1787942303 32.78° C 43% 1014 hPa 0 mm - - -
1787941702 32.22° C 43% 1014.3 hPa 0 mm - - -
1787941103 32.22° C 44% 1014.4 hPa 0 mm - - -
1787940502 32.22° C 45% 1014.4 hPa 0 mm - - -
1787939911 31.67° C 42% 1014.8 hPa 0 mm - - -
1787939303 32.22° C 42% 1014.9 hPa 0 mm - - -
1787938702 31.67° C 45% 1014.9 hPa 0 mm - - -
1787938102 31.11° C 44% 1015.2 hPa 0 mm - - -
1787937503 31.11° C 45% 1015.4 hPa 0 mm - - -
1787936904 30.56° C 48% 1015.5 hPa 0 mm - - -
1787936303 30° C 51% 1015.6 hPa 0 mm - - -
1787935704 29.44° C 50% 1015.7 hPa 0 mm - - -
1787935103 29.44° C 53% 1015.8 hPa 0 mm - - -
1787934503 29.44° C 53% 1015.9 hPa 0 mm - - -
1787933903 28.33° C 54% 1016 hPa 0 mm - - -
1787933302 27.78° C 58% 1016.1 hPa 0 mm - - -
1787932703 27.22° C 58% 1016 hPa 0 mm - - -
1787932102 26.67° C 61% 1015.7 hPa 0 mm - - -
1787931503 26.11° C 62% 1015.7 hPa 0 mm - - -
1787930903 25.56° C 63% 1015.6 hPa 0 mm - - -
1787930304 25.56° C 64% 1015.7 hPa 0 mm - - -
1787929703 24.44° C 65% 1015.8 hPa 0 mm - - -

* Rain latest hour (hover to see other rain measurements)
** Current wind speed in m/s (hover to see current wind gust speed)